User: anonymous   Login
Location: Skalnate Pleso
(49.1889°N, 20.2450°E)
Time: 12:56:48
(UTC+01:00)
Language:

Cosmos 1606 - Orbit

View from above orbital plane
View from above orbital plane
View from above satellite
View from above satellite

Ground track
Ground track

The orbit data is extracted from the following two-line orbital elements,

1 15369U 84111A   20020.74055394  .00000211  00000-0  90872-5 0  9995
2 15369  82.5276 269.6826 0016611 205.9195 154.1207 15.16556234924037
Epoch (UTC): 20 January 2020 17:46:23
Eccentricity: 0.0016611
inclination: 82.5276°
perigee height: 505 km
apogee height: 528 km
right ascension of ascending node: 269.6826°
argument of perigee: 205.9195°
revolutions per day: 15.16556234
mean anomaly at epoch: 154.1207°
orbit number at epoch: 92403

The dashed part of the orbit path shows where the satellite is in the earth's shadow,  

DLR